Preview of NWS' New Version of Forecast
This preview is not operational and should not be used for support decisions.

Regional Weather Roundup (RWR)

Issued by National Weather Service (NWS)

                            
000
ASCA42 TJSJ 170910
RWRPR 
PUERTO RICO/U.S. VIRGIN ISLANDS HOURLY WEATHER ROUNDUP
NATIONAL WEATHER SERVICE SAN JUAN PR
500 AM AST FRI MAY 17 2019

PRZ001>002-007>008-010-171000-
PUERTO RICO
  
CITY           SKY/WX    TMP DP  RH WIND       PRES   REMARKS
SAN JUAN LMM   PTCLDY    79  73  83 CALM      29.98R                  
CEIBA          MOCLDY    81  73  78 SE7       29.99R                  
$$

VIZ001>002-171000-
U.S. VIRGIN ISLANDS
  
CITY           SKY/WX    TMP DP  RH WIND       PRES   REMARKS
CHARLOTTE AMA    N/A    N/A N/A N/A MISG      29.97R                  
CHRISTIANSTED  PTCLDY    75  72  88 N5        29.99R                  
$$

HOURLY WEATHER ROUNDUP FOR THE NEWS MEDIA
  
CITY           SKY/WX    TMP DP  RH WIND       PRES   REMARKS
ORLANDO        FAIR      68  62  81 CALM      30.02S                  
NEW YORK       FAIR      54  52  93 S7        29.82F                  
NEWARK         FAIR      58  48  69 W5        29.82S                  
CHICAGO        CLOUDY    57  55  93 N14       29.77R                  
HARTFORD       FAIR      44  44 100 CALM      29.82F FOG              
BOSTON         MOCLDY    51  48  89 S3        29.81F                  
DALLAS         CLOUDY    73  60  63 S10       29.85F                  
PHILADELPHIA   FAIR      58  52  80 S7        29.83F                  
LOS ANGELES    PTCLDY    59  47  64 MISG      29.97                   
WASHINGTON DC  CLOUDY    53  50  89 S3        29.82F